Wind_Speed
22 22 21 22 22 22 22 22 22 22 22 23 24 25 26 28 30 31 33 34 35 36 37 38 39 40 40 41 42 42 43 44 44 45 45 44 44 44 44 45 44 44 43 43 43 42 42 42 42 43 44 45 46 47 48 50 51 52 52 52 53 52 52 53 55 55 55 55 54 54 53 53 53 52 51 50 49 48 47 46 44 44 44 44 43
21 21 21 21 22 22 22 22 22 22 22 23 24 25 26 27 29 30 32 34 35 36 37 39 39 40 41 41 42 42 43 44 45 45 46 45 44 44 44 44 44 44 44 44 44 43 43 43 43 44 44 44 44 45 46 47 49 50 52 53 54 55 56 57 58 59 59 59 59 58 57 56 54 53 52 51 49 47 47 46 45 45 44 44 44
21 22 22 22 22 22 22 22 22 23 23 24 25 26 27 28 29 30 32 33 35 36 38 39 40 41 42 42 43 43 44 44 45 45 46 46 45 45 45 46 46 47 48 48 48 47 47 48 48 48 47 47 46 46 46 46 46 47 48 49 50 52 53 55 56 57 58 59 59 59 58 56 53 52 50 49 47 47 47 46 45 45 45 45 45
22 23 23 23 23 23 23 23 23 23 24 25 25 26 28 29 30 31 32 34 35 36 38 39 40 41 41 42 43 43 44 45 45 46 47 48 48 48 50 50 51 52 53 52 53 53 53 53 53 53 52 51 50 50 49 49 49 48 48 48 48 49 49 50 51 52 54 54 55 55 55 54 53 51 49 47 47 48 47 47 47 46 46 46 46
23 23 23 24 24 24 24 24 24 25 25 26 27 28 29 30 31 33 33 34 36 37 38 38 39 40 41 41 42 44 45 46 48 49 50 51 52 53 54 55 56 58 58 57 58 58 58 57 57 57 56 56 55 54 53 52 51 51 51 50 50 50 50 49 50 51 52 52 53 53 53 53 53 52 51 48 47 47 47 48 48 48 48 47 47
26 25 25 26 26 26 26 26 26 26 26 27 28 28 30 31 32 33 34 35 36 37 38 38 39 40 42 44 45 47 49 51 52 54 55 56 56 56 57 57 58 58 59 58 58 58 58 58 57 57 56 56 56 55 55 54 54 53 53 52 52 52 52 51 51 51 52 52 53 54 54 55 54 53 53 52 49 48 47 48 48 49 49 49 49
27 27 28 28 29 29 29 29 29 28 28 28 29 29 30 31 32 34 35 36 37 38 39 41 42 44 46 49 50 51 53 54 55 55 56 56 56 55 54 54 54 55 55 55 55 55 55 54 54 54 54 54 55 55 54 54 54 54 54 54 54 54 54 54 54 53 53 52 53 54 54 55 56 56 56 56 54 51 49 49 49 49 50 50 51
28 28 28 29 30 31 31 32 31 31 31 30 30 31 31 32 33 35 36 37 38 40 42 44 46 48 50 50 51 51 52 53 52 52 53 52 52 52 52 51 52 52 52 52 52 52 52 51 51 51 51 52 52 53 53 53 53 53 53 53 53 53 54 54 54 54 54 53 52 52 54 54 55 56 57 57 58 57 54 52 52 51 51 51 52
29 29 29 30 31 32 32 33 34 34 34 34 34 33 34 34 35 36 38 39 41 42 44 46 48 48 48 48 48 49 49 50 50 50 50 51 51 50 50 50 50 50 50 50 50 50 50 50 49 49 49 49 50 50 50 51 51 51 51 51 51 51 52 52 53 53 53 53 52 51 51 52 53 54 55 56 58 60 59 57 55 54 54 53 53
31 31 31 31 32 33 34 34 35 36 36 36 37 37 37 38 38 39 41 42 44 45 47 49 48 47 47 47 48 48 49 49 49 49 49 49 49 49 49 48 48 48 49 48 48 48 48 48 48 47 47 47 48 48 48 48 48 48 49 49 49 49 48 49 50 50 51 51 51 51 50 50 51 51 52 53 55 58 60 60 59 58 57 56 55
32 32 33 33 34 34 35 35 36 37 37 38 39 39 40 41 41 42 43 45 46 48 49 50 50 49 49 49 49 50 50 50 49 49 48 49 48 48 47 47 47 47 47 46 46 46 46 46 46 46 46 46 46 46 46 46 46 46 46 46 46 46 46 47 47 47 48 48 49 50 50 49 50 50 50 51 53 55 58 60 60 59 59 58 57
33 33 34 35 35 36 36 37 37 38 39 39 40 41 42 43 44 45 45 47 48 48 49 50 51 51 51 51 51 51 51 50 50 49 49 48 48 47 46 45 45 46 46 45 44 44 44 43 44 44 44 44 44 44 44 44 45 45 44 45 45 45 45 45 45 46 46 47 47 48 48 48 49 49 50 50 51 53 55 58 59 59 60 59 58
34 35 36 37 37 38 38 39 39 40 40 40 41 42 43 44 45 47 47 48 48 48 49 50 51 52 52 52 51 51 50 50 50 49 48 48 48 47 45 44 44 44 44 43 43 42 42 42 42 42 42 42 43 43 43 43 43 43 44 44 44 44 44 44 45 45 45 46 47 47 47 48 48 48 49 50 51 51 53 56 57 58 59 59 58
36 37 38 38 38 39 40 40 41 41 41 41 42 43 44 45 46 48 48 49 49 48 48 50 51 51 52 52 51 50 50 50 49 49 48 48 48 47 45 43 43 43 43 42 42 41 40 40 40 41 41 41 41 41 42 42 42 42 43 43 43 43 44 44 44 45 45 45 46 46 47 47 48 48 48 49 50 51 52 54 55 57 57 58 58
38 39 39 40 40 41 41 42 42 41 42 42 43 44 44 46 47 48 49 49 49 48 48 49 50 51 51 51 51 50 49 49 48 48 48 47 47 46 44 43 42 42 42 41 40 40 39 39 39 39 39 40 40 40 41 41 41 42 42 42 43 43 44 44 44 45 45 46 46 46 47 47 47 48 48 48 49 50 51 52 54 56 57 57 57
40 40 41 42 42 43 43 43 43 43 42 42 43 43 45 46 48 48 48 48 48 47 47 48 49 50 50 50 50 50 49 48 47 47 47 46 46 45 44 43 41 41 40 40 39 38 38 38 38 38 38 39 39 40 40 41 41 42 42 43 43 43 44 44 44 45 45 46 46 46 47 47 47 48 48 48 49 49 50 51 52 54 57 58 58
42 42 42 44 45 45 46 46 45 45 44 44 43 43 45 46 46 47 46 47 47 47 46 47 48 49 49 49 49 49 48 48 47 46 45 45 44 44 43 42 40 39 39 38 38 38 37 37 38 38 38 39 39 40 40 41 42 42 42 43 43 43 44 44 44 44 45 45 45 46 46 47 47 47 48 48 49 49 50 51 51 52 55 57 59
45 45 45 46 47 48 49 48 48 47 47 46 46 45 46 46 46 46 46 46 47 46 46 46 48 49 49 49 49 49 48 47 46 45 45 44 43 42 42 41 40 39 38 38 38 38 38 38 38 38 39 39 40 40 40 41 41 42 42 42 43 43 43 43 44 44 44 44 45 45 45 46 46 47 47 48 48 49 49 50 51 52 53 55 57
48 48 48 48 50 51 52 51 51 50 50 50 50 50 50 50 50 50 49 49 49 48 47 48 49 50 50 50 49 48 47 46 46 45 44 43 42 41 40 40 39 39 38 38 38 39 39 39 39 39 39 40 40 40 40 40 40 41 41 41 42 43 43 43 43 44 44 44 44 44 45 45 46 46 47 47 48 48 49 50 50 51 52 53 55
50 51 51 52 53 53 54 55 54 54 53 54 54 55 55 55 56 56 55 55 54 53 51 51 51 52 52 52 50 48 47 46 45 45 43 42 41 40 40 39 39 39 39 39 39 39 39 39 40 40 40 40 40 40 40 40 40 40 40 41 41 41 42 42 43 43 43 44 44 44 44 45 45 45 46 46 47 48 48 49 49 50 50 52 53
52 52 53 54 55 56 57 57 57 56 56 57 57 58 59 59 59 60 60 60 60 58 56 55 54 54 54 54 51 49 47 45 45 44 43 42 41 40 40 39 39 39 39 39 39 39 40 40 40 40 40 40 40 40 40 39 39 39 39 40 40 41 41 41 41 42 42 43 43 44 44 44 45 45 46 46 46 47 47 48 49 49 49 50 51
53 54 55 56 57 58 58 59 58 58 58 58 59 60 62 62 62 62 63 64 64 63 61 59 57 57 56 55 53 50 48 46 44 43 42 41 40 39 39 40 40 40 40 40 40 40 40 40 40 40 40 40 40 39 39 39 39 39 39 40 40 40 40 40 40 41 41 42 42 43 43 44 44 45 46 46 46 46 47 47 47 48 49 49 50
54 55 56 57 59 59 60 61 59 59 59 59 61 62 63 64 63 64 64 65 65 65 64 63 61 59 56 56 55 52 49 47 43 42 41 40 39 39 39 40 40 40 40 40 40 40 40 40 40 40 39 40 39 39 39 39 39 39 39 39 40 40 40 40 40 40 41 41 42 42 42 43 43 44 45 45 46 46 46 47 47 47 48 48 48
55 56 57 58 59 60 61 60 58 58 58 57 58 60 62 63 63 64 65 65 66 67 66 65 63 60 57 57 56 53 51 47 43 41 40 40 39 39 39 40 40 40 40 40 40 40 40 40 39 39 39 39 39 39 39 39 39 39 39 39 39 40 40 40 40 40 41 41 41 42 42 42 42 43 44 44 44 45 45 46 47 46 47 47 48
57 57 58 58 59 60 59 56 54 55 55 53 55 58 61 62 63 64 65 65 66 67 67 66 64 60 57 57 57 54 51 47 44 42 40 40 39 39 40 40 40 40 40 40 40 40 40 40 39 39 39 39 39 39 38 38 38 39 39 39 39 39 39 40 40 40 41 41 41 42 42 42 42 43 43 43 43 44 45 45 46 46 46 46 47
57 58 58 58 60 59 57 55 54 54 53 54 56 58 60 60 61 63 64 64 66 66 67 66 64 61 58 57 57 53 50 47 44 42 41 40 39 39 40 40 40 40 40 40 40 40 40 39 39 39 39 39 39 38 38 38 38 38 39 39 39 39 39 39 40 40 41 41 42 42 41 41 42 42 42 42 43 43 44 44 44 44 45 45 46
57 57 58 59 60 59 58 58 56 54 54 56 58 59 59 59 60 62 62 63 64 65 65 65 63 60 58 57 56 54 51 47 44 43 42 40 40 40 40 40 40 40 40 39 40 40 40 39 39 39 39 39 38 38 37 37 38 38 38 38 38 38 39 39 40 40 40 41 41 41 41 41 40 41 41 41 42 43 43 43 43 43 43 44 45
57 58 60 60 60 59 59 58 58 59 61 62 62 61 60 60 60 60 60 61 61 63 63 61 60 59 57 55 56 57 54 49 45 43 41 40 39 39 40 40 39 39 39 39 40 40 39 39 39 39 39 38 38 37 37 37 38 38 38 38 38 38 39 39 40 40 40 41 41 40 40 40 40 40 41 41 42 42 42 42 42 42 42 43 44
59 59 59 59 59 59 59 60 62 64 66 67 67 64 62 60 58 58 59 59 60 60 60 58 58 58 56 54 55 59 58 50 45 43 40 39 39 39 39 39 39 39 39 39 39 39 39 39 38 39 38 38 38 37 37 37 38 38 37 38 38 39 40 40 40 40 40 40 40 39 39 39 40 40 41 41 42 41 42 42 41 40 41 42 43
58 58 59 59 60 60 60 61 62 63 67 69 68 64 60 57 57 57 57 57 59 59 58 58 58 56 54 52 56 61 58 49 44 41 39 38 38 38 38 38 38 38 38 39 39 39 38 38 38 38 38 37 37 36 36 37 37 37 37 37 38 39 40 40 40 40 39 39 38 38 38 38 38 39 39 39 40 40 41 41 41 40 40 40 41
59 60 61 60 58 57 58 60 63 67 70 70 66 60 56 55 56 56 56 56 57 58 58 58 57 55 52 52 58 63 55 46 42 39 37 38 38 38 38 37 38 38 38 38 38 38 38 37 38 38 37 37 36 35 36 36 36 36 37 38 39 40 40 41 41 41 40 39 38 38 38 38 38 38 37 37 37 38 38 39 39 39 39 38 39
61 60 59 56 56 59 63 67 72 73 72 68 62 57 54 54 55 55 56 56 56 57 58 57 55 53 52 55 62 62 51 42 38 37 36 37 37 37 37 36 37 37 37 38 37 37 37 37 37 37 36 36 35 34 35 35 35 35 35 37 39 41 41 41 41 41 40 40 40 39 38 38 38 38 38 37 37 37 36 36 36 36 37 36 36
59 57 57 59 63 67 71 74 75 73 69 65 59 54 52 53 54 55 56 56 55 56 56 55 53 52 54 60 64 57 44 38 36 35 35 35 35 35 35 35 36 36 37 37 36 36 36 36 36 36 36 35 34 34 34 34 34 34 34 35 39 41 41 41 41 41 41 41 41 40 39 38 37 37 37 37 37 37 36 35 34 35 36 35 35
59 61 64 67 71 74 75 75 72 70 67 64 59 55 52 52 51 51 53 54 54 54 53 52 51 53 60 64 58 46 37 35 34 33 34 34 34 34 34 34 35 35 36 36 35 35 35 35 35 35 35 35 34 34 34 34 34 33 33 35 38 40 40 40 40 40 40 41 40 40 40 39 38 37 37 36 36 36 35 35 34 35 35 36 35
65 67 69 71 73 74 73 72 69 68 66 63 60 56 52 49 47 47 50 51 51 50 49 49 53 60 64 58 45 36 33 33 32 32 33 33 33 34 33 34 34 34 35 35 34 35 35 34 34 34 35 34 34 34 34 33 33 33 33 36 38 39 39 39 39 40 40 40 39 39 39 39 39 38 37 36 36 35 34 34 34 34 34 34 35
67 69 71 72 71 71 70 69 68 66 64 61 57 51 46 44 44 44 44 44 44 45 47 52 60 63 56 43 35 32 31 30 30 31 32 32 33 33 33 33 33 34 34 34 34 34 34 34 34 34 34 34 33 33 33 33 32 32 33 36 37 38 38 39 39 39 39 39 38 38 38 38 39 38 37 35 33 32 32 32 32 33 33 33 35
69 70 70 69 68 67 66 65 64 62 59 55 49 43 39 39 39 38 39 41 44 48 54 60 62 54 40 32 31 30 29 29 30 31 31 32 32 32 32 32 33 33 33 33 33 33 33 33 33 33 34 34 33 33 33 33 32 31 32 34 36 37 38 38 39 38 38 37 36 37 38 38 38 36 34 33 29 27 28 29 31 32 33 34 36
70 68 67 65 64 63 62 61 59 56 53 49 44 40 39 39 40 41 44 48 52 56 59 57 48 37 30 28 28 27 27 28 29 30 31 31 31 31 31 32 32 32 32 32 32 32 32 32 32 33 33 33 32 32 32 32 31 30 31 33 36 37 38 38 38 37 37 36 37 37 37 36 35 33 32 30 26 23 25 29 31 32 34 36 37
67 65 63 62 61 60 59 58 56 53 50 46 43 41 41 41 43 46 49 51 53 52 48 40 32 28 27 26 25 26 27 28 28 30 30 31 31 31 31 31 31 31 32 32 31 31 31 31 31 32 32 33 32 32 32 32 31 29 30 32 35 36 37 37 37 37 36 37 37 36 35 33 32 31 30 28 25 24 26 29 31 33 36 38 39
64 62 61 60 59 58 57 56 54 52 49 45 44 43 41 40 40 41 42 42 41 38 34 29 27 26 25 24 25 26 27 28 29 30 30 30 31 30 30 30 30 31 31 31 30 31 31 30 31 31 32 32 32 32 32 32 31 29 29 31 34 35 36 37 36 36 37 38 37 34 33 31 30 30 29 27 25 25 26 28 31 34 37 38 37
62 61 60 59 57 56 54 52 51 49 46 44 43 41 39 37 35 34 34 33 32 31 29 27 26 25 24 24 25 26 27 28 29 30 30 30 30 30 30 30 29 30 30 30 29 30 30 30 30 31 31 31 32 32 32 31 30 29 29 30 33 34 35 35 36 37 38 37 35 32 32 31 30 30 28 26 25 24 25 29 33 35 35 35 35
62 61 59 57 55 53 51 50 48 46 44 42 39 37 35 34 32 31 31 31 30 29 28 26 25 24 24 25 25 26 27 28 29 29 30 29 29 29 29 28 28 29 29 28 28 29 29 29 29 30 30 31 31 33 32 31 30 29 28 29 31 32 33 34 36 38 38 35 33 32 32 31 30 30 28 25 24 25 27 33 36 35 35 36 38
61 58 55 53 51 50 49 48 46 44 41 39 36 34 32 31 31 30 30 30 29 28 26 25 24 24 24 25 26 27 27 28 29 29 29 28 28 28 27 27 27 28 28 28 28 28 29 29 29 29 30 30 31 32 32 31 29 28 28 28 29 31 31 33 36 37 36 33 32 31 31 31 31 30 28 25 26 29 34 37 38 38 38 39 40
57 53 50 48 47 47 46 45 43 41 39 37 35 33 32 30 30 29 28 28 26 25 24 24 24 24 25 26 27 27 27 28 28 28 28 28 27 27 27 27 27 27 27 27 27 28 29 29 29 29 29 30 31 31 31 30 29 28 28 28 29 30 30 33 35 34 33 32 32 31 30 31 32 31 29 29 31 34 36 38 38 39 40 38 37
51 49 47 46 45 45 43 41 39 38 36 35 33 32 30 29 27 26 25 25 24 24 24 24 24 25 25 26 26 26 27 27 27 27 27 26 26 26 26 25 26 26 27 27 28 28 29 29 30 30 30 30 31 31 30 29 28 28 27 28 28 29 30 31 32 31 31 31 30 30 31 32 32 31 31 32 33 33 34 35 37 39 39 37 36
49 47 45 44 42 41 40 39 37 35 34 33 31 30 29 27 26 25 25 24 24 24 24 24 25 25 25 26 26 25 25 25 26 26 26 25 26 26 25 25 25 26 27 28 28 29 29 30 30 31 31 31 30 30 29 28 28 27 27 27 28 28 28 29 29 29 29 29 29 29 30 30 29 29 30 32 33 32 33 34 35 37 37 37 36
46 44 43 41 40 39 38 37 36 34 33 32 30 29 28 27 26 25 25 25 25 24 24 24 24 24 25 25 25 25 25 25 25 25 25 25 25 25 25 25 25 26 28 28 29 29 30 31 31 31 31 31 30 29 29 28 28 28 27 27 27 27 27 27 28 27 27 27 28 27 27 26 26 27 28 29 30 31 31 32 33 33 34 34 34
43 41 40 39 38 37 37 36 35 33 32 31 30 29 28 27 27 26 26 26 25 25 24 24 24 25 25 25 25 25 25 25 25 25 25 25 25 25 25 25 25 27 29 29 29 30 30 31 33 33 32 32 30 29 28 28 28 28 27 27 27 27 27 27 27 26 27 27 27 26 24 24 25 26 26 26 27 28 28 29 30 30 30 31 31
41 39 37 37 36 36 35 34 33 32 31 30 30 29 28 28 27 27 27 27 26 26 26 26 26 26 26 26 26 26 26 26 25 25 25 25 25 26 26 26 26 27 29 30 30 30 30 32 33 33 32 32 30 28 27 28 28 28 28 28 27 28 28 28 28 29 30 30 28 27 26 26 26 26 25 25 25 26 26 26 27 28 29 29 29
38 36 34 35 35 34 34 33 32 31 31 30 30 29 29 29 28 28 28 28 28 28 27 27 27 27 27 27 27 26 26 26 26 26 26 25 25 26 27 28 27 27 29 30 31 31 31 33 34 34 33 33 31 29 28 28 28 29 29 29 29 30 31 31 31 32 33 32 30 28 28 28 27 26 26 25 25 25 25 24 25 26 27 28 28
36 35 34 34 33 33 33 33 32 32 31 31 30 30 30 29 29 29 29 29 29 28 28 28 28 28 28 28 27 27 27 27 27 27 27 26 26 25 25 27 29 29 29 30 31 31 31 33 35 36 36 35 34 32 31 30 30 30 29 29 30 31 31 31 32 33 33 32 30 29 29 28 27 27 26 26 25 25 24 24 23 24 25 26 27
Wind_Direction
339 336 334 334 333 332 330 329 327 325 322 318 315 312 308 306 304 302 300 298 297 296 294 293 291 290 289 288 288 287 288 288 289 289 289 289 289 289 289 290 290 290 290 290 290 289 289 288 287 286 284 283 281 279 278 276 275 273 272 272 271 271 271 272 272 272 271 271 270 270 270 271 272 272 273 273 272 272 271 269 267 265 263 262 262
341 338 337 336 334 333 331 329 327 324 321 318 314 311 307 305 302 301 299 297 296 295 294 293 292 291 290 289 289 288 288 289 289 290 290 290 290 290 290 289 289 289 289 289 289 289 290 289 289 288 286 285 283 282 280 278 276 275 275 274 273 272 272 272 272 273 273 273 273 272 272 272 272 273 272 271 271 270 269 268 266 265 263 262 262
341 339 338 336 333 332 330 328 326 323 320 317 313 310 307 304 302 300 298 296 295 294 293 292 292 291 290 290 290 290 290 290 291 291 292 291 291 292 292 290 290 290 290 289 289 289 289 289 288 288 287 286 285 284 282 281 279 278 277 275 274 273 273 273 273 273 273 273 273 273 272 271 270 269 269 269 269 268 267 267 266 265 265 264 263
340 339 337 335 333 331 329 328 325 322 320 317 314 311 308 305 303 300 299 297 295 293 292 291 290 290 290 291 291 292 291 291 291 292 292 292 291 292 292 290 290 291 291 289 289 289 289 288 287 287 287 286 285 283 282 281 281 279 278 277 276 275 274 273 273 273 273 273 273 272 272 271 270 267 266 266 266 266 266 266 266 265 265 264 264
339 337 335 333 331 329 327 326 325 322 320 317 315 312 309 307 304 302 299 297 295 294 293 291 291 291 291 290 290 290 290 290 289 289 290 289 289 289 289 288 287 288 288 287 286 286 287 286 285 284 283 283 282 281 280 279 279 277 276 276 275 274 273 273 272 271 272 272 272 272 271 270 270 268 267 264 263 265 265 265 265 265 265 265 265
338 336 334 332 330 328 327 325 324 322 319 316 314 312 309 307 305 303 300 298 296 295 293 292 291 290 290 290 288 287 287 288 287 287 287 287 288 287 286 286 286 287 287 285 285 284 284 283 282 281 280 279 278 277 276 275 274 273 273 273 272 271 271 270 269 268 268 269 270 270 270 270 269 269 268 266 263 262 262 264 265 266 266 266 266
336 334 333 331 329 328 327 325 324 321 318 315 313 311 308 306 304 302 300 298 296 294 293 292 290 289 289 290 289 287 287 288 288 287 287 288 288 288 288 289 289 289 288 287 287 286 285 284 282 280 279 277 276 274 273 272 270 270 269 268 268 267 267 267 266 266 265 265 266 267 268 269 269 269 268 267 265 262 260 261 262 264 265 266 266
333 332 330 328 327 325 324 323 322 319 317 314 312 309 306 304 302 300 298 297 295 294 294 293 292 291 291 291 290 290 290 290 290 290 290 290 290 290 290 290 290 290 290 289 289 288 287 285 283 281 280 278 277 275 273 271 270 268 267 266 266 265 265 265 264 264 263 263 263 264 265 266 267 268 268 268 267 264 261 259 258 259 261 262 264
331 329 327 325 324 323 321 320 319 317 315 313 312 309 306 303 301 299 297 296 294 294 294 295 295 294 294 294 293 293 293 293 293 293 293 292 292 292 292 291 291 290 289 289 288 288 287 286 284 282 281 279 278 276 275 273 272 270 269 268 267 266 266 265 265 264 264 263 263 263 263 264 265 266 267 268 267 267 265 262 259 257 257 258 259
329 327 326 324 322 321 318 317 316 314 312 311 311 309 306 304 301 299 298 296 295 295 295 297 298 298 298 298 298 297 296 296 295 295 294 294 294 293 293 293 292 291 290 289 288 287 286 285 283 282 281 280 279 277 276 275 273 272 271 271 270 269 269 268 268 267 267 267 266 265 264 264 264 265 266 267 267 267 266 264 263 260 258 256 257
327 326 325 323 321 319 317 315 314 312 311 310 309 307 305 303 301 300 298 297 297 297 298 299 300 301 301 302 301 300 299 298 298 297 297 296 295 295 294 293 292 291 290 289 288 287 286 284 283 282 281 280 279 278 277 276 275 274 273 272 272 271 271 270 270 270 270 270 270 269 268 266 266 265 265 266 266 267 266 265 265 264 261 258 257
326 325 324 323 321 319 317 316 314 311 310 310 308 306 304 303 301 299 298 298 298 299 300 300 301 302 302 302 302 301 300 300 299 299 298 297 297 296 294 293 291 291 290 289 288 287 286 284 282 281 280 279 279 278 277 276 276 275 274 274 273 273 272 272 271 271 271 271 271 272 271 270 269 268 267 267 266 267 267 265 265 265 263 260 259
326 324 323 323 321 319 317 316 314 312 311 309 307 305 303 302 300 299 298 298 298 299 300 300 301 302 302 302 302 301 301 300 300 300 299 298 297 296 295 293 292 290 289 288 287 286 284 283 282 281 280 279 278 278 277 277 276 276 275 275 275 274 274 274 273 273 272 272 272 272 272 272 272 272 271 270 269 269 268 267 266 266 265 261 261
326 324 323 322 321 319 318 316 315 313 310 308 306 304 302 300 299 298 297 297 298 299 300 300 300 301 301 301 301 301 301 301 300 300 299 299 298 297 296 294 292 290 289 287 286 285 284 282 281 280 279 279 278 278 278 278 277 277 277 277 276 276 276 276 276 275 275 274 274 273 273 273 273 273 273 272 272 271 271 270 269 268 267 265 263
326 324 322 322 321 319 318 317 315 313 310 307 305 303 300 298 297 296 297 297 298 299 299 299 299 300 300 301 301 301 301 301 300 300 299 298 298 297 296 293 291 289 288 287 286 285 283 282 281 280 280 279 279 279 279 279 279 279 279 278 278 278 277 277 277 277 276 276 276 275 274 274 273 273 273 272 272 272 272 272 272 271 269 267 266
324 323 322 321 320 319 319 317 314 312 309 306 304 301 298 296 296 296 297 297 298 299 299 298 299 299 300 301 301 301 301 301 300 299 298 297 296 296 294 292 290 289 287 287 286 285 284 283 282 281 281 281 280 280 280 280 280 280 280 279 279 279 278 278 277 277 277 276 276 276 276 275 275 274 274 273 273 272 272 272 272 272 271 269 267
322 322 322 321 320 319 319 317 314 311 308 306 304 300 297 297 297 297 297 297 297 298 298 298 299 299 300 301 301 301 301 301 300 299 298 296 295 294 293 291 289 288 287 286 285 285 284 284 283 283 282 282 282 281 281 281 281 280 280 280 279 279 279 278 278 277 277 276 276 276 276 276 275 275 275 274 273 273 273 272 272 272 272 271 270
322 322 322 321 320 319 319 318 315 312 310 308 306 304 302 301 300 298 297 297 298 298 299 300 301 301 301 301 301 301 301 300 300 299 297 295 293 292 291 289 288 286 285 285 285 284 284 284 284 284 283 283 282 282 282 281 281 281 280 280 280 279 279 278 278 277 277 276 276 276 275 275 275 275 274 274 274 273 273 273 272 272 272 271 271
322 322 322 321 320 319 319 319 317 315 313 312 311 310 308 307 305 303 302 302 302 303 304 305 305 304 302 301 301 300 300 300 299 298 296 294 292 289 288 287 286 286 285 285 284 284 284 284 284 284 284 284 283 283 282 282 282 281 281 280 280 279 279 278 278 277 277 276 276 275 275 274 274 274 274 273 273 273 272 272 272 271 272 272 272
322 322 322 321 320 320 320 320 318 317 315 314 314 313 312 310 309 308 308 307 307 308 308 309 308 305 303 302 302 300 300 299 298 296 294 292 290 288 287 286 285 285 285 285 284 284 284 284 284 284 284 284 283 283 283 282 282 282 281 280 280 279 279 278 278 277 277 277 276 275 275 274 274 273 273 273 272 272 272 272 271 271 271 271 271
322 322 321 320 320 319 319 319 319 317 316 315 314 314 313 312 311 310 309 308 309 309 309 309 309 306 303 302 302 301 299 298 296 294 292 290 288 286 286 285 285 285 285 284 284 283 284 284 284 284 284 284 283 283 283 282 282 282 281 281 280 280 279 278 278 278 277 277 276 276 276 275 275 274 273 273 272 272 272 272 272 271 270 270 270
321 321 320 319 318 318 318 318 318 317 316 315 314 314 313 313 311 310 309 308 308 308 307 308 308 306 303 302 302 301 299 297 294 292 290 288 286 285 285 285 285 285 284 284 284 283 283 284 284 284 283 283 283 283 283 283 283 282 282 282 281 281 280 280 279 279 278 277 276 276 276 276 275 275 274 274 273 273 272 272 271 271 270 270 270
320 320 319 318 317 317 316 315 317 317 316 314 313 314 313 312 310 307 307 306 305 304 304 305 306 305 304 302 302 302 299 295 292 290 288 286 285 284 284 284 284 284 284 283 283 283 283 283 284 284 283 283 283 283 283 283 283 282 282 282 282 282 282 281 281 280 279 278 278 277 276 276 276 275 275 275 275 274 274 273 272 272 271 271 271
320 318 317 316 315 314 313 314 316 316 314 312 310 311 309 307 305 303 303 303 302 301 301 302 303 304 304 302 301 301 299 295 291 289 286 284 283 283 283 283 284 283 283 283 282 283 283 283 283 283 283 283 283 283 283 283 283 282 282 282 282 282 282 282 282 281 280 280 279 278 278 277 277 276 276 276 275 275 274 274 273 272 272 271 271
318 316 315 314 313 313 313 313 314 313 310 307 305 305 304 302 300 299 300 299 298 298 298 299 301 304 304 302 300 299 298 294 291 288 285 284 283 283 283 283 283 283 282 282 282 282 283 283 283 283 283 283 283 283 283 283 283 283 283 283 283 283 283 282 282 282 281 281 280 280 280 279 279 278 278 277 277 276 275 274 274 273 273 272 271
315 313 312 312 312 313 311 311 311 310 307 304 303 303 302 300 297 296 296 296 295 295 295 296 299 302 302 300 298 299 298 294 291 288 285 284 283 283 283 283 283 283 282 282 282 283 283 283 283 283 283 283 283 283 283 284 284 284 284 284 284 283 283 283 282 282 282 282 282 282 281 281 281 280 280 279 278 277 276 276 275 274 274 273 272
312 311 311 311 312 311 308 307 307 307 305 304 304 304 303 300 297 296 295 294 293 293 293 294 297 299 300 299 299 301 300 295 291 287 284 284 284 284 284 284 284 283 283 283 283 282 283 283 283 283 283 283 284 284 284 284 284 284 284 284 284 284 284 283 283 283 283 283 283 283 283 283 283 282 281 279 278 277 277 277 276 276 275 275 273
310 310 310 310 310 308 307 305 305 306 308 310 310 309 306 304 300 297 296 294 294 293 292 294 296 297 299 300 300 302 302 296 290 286 284 283 284 284 284 284 284 284 284 283 283 283 283 283 283 283 283 283 284 284 284 284 284 284 285 285 285 285 285 284 284 285 285 285 285 286 286 286 285 283 281 280 279 278 278 277 277 277 276 275 274
310 310 310 310 309 308 307 306 307 310 312 314 314 311 308 306 302 300 298 296 295 293 291 294 298 298 298 298 298 302 302 295 288 284 282 283 284 283 284 284 284 284 284 283 283 283 283 283 283 283 283 284 284 284 285 285 285 285 286 286 286 286 286 285 286 286 286 287 288 288 288 287 285 284 282 282 281 280 279 278 277 276 275 274 274
312 311 311 312 311 310 309 310 310 311 311 312 312 310 308 305 303 302 300 298 297 295 292 296 299 297 295 294 296 301 301 291 285 283 282 283 284 283 284 285 284 284 284 283 283 283 283 283 282 282 283 283 284 285 285 286 286 287 287 287 286 285 285 285 285 285 285 286 286 286 285 284 283 282 282 281 280 279 279 278 276 275 274 273 273
314 314 314 314 312 310 309 309 309 309 310 311 311 311 309 307 305 303 302 300 298 296 295 297 297 293 289 289 295 301 298 287 283 283 283 284 284 284 285 285 285 285 284 284 283 283 283 282 282 282 282 283 284 285 285 285 287 288 288 288 287 286 286 286 286 286 286 286 284 283 282 282 281 281 280 278 277 276 275 275 275 274 273 272 273
317 317 315 313 310 309 309 309 309 310 310 311 312 312 310 307 305 303 301 299 298 297 296 294 291 286 284 288 296 299 294 284 282 283 282 284 284 285 286 285 286 285 284 284 283 283 283 283 283 283 283 283 284 284 285 285 286 288 289 289 288 287 288 288 289 290 289 288 287 286 285 285 284 284 282 280 278 275 273 271 270 270 270 269 269
317 314 312 310 309 309 309 308 308 309 309 311 312 310 306 304 302 301 300 299 299 297 293 288 283 281 284 291 296 296 288 282 283 282 282 284 283 284 285 285 285 285 284 284 283 283 283 283 283 284 283 284 284 284 285 286 286 288 288 288 287 287 288 290 290 291 290 290 290 290 290 289 288 287 285 283 281 278 276 273 270 268 266 263 261
314 311 311 310 309 308 307 307 308 309 311 311 310 307 303 300 299 299 299 299 297 292 286 280 279 283 290 295 295 291 284 283 284 283 284 284 284 286 286 285 286 285 284 285 284 284 284 284 284 284 284 285 285 285 285 286 287 288 287 286 285 287 288 289 290 290 290 290 291 292 293 292 291 289 287 285 284 282 279 277 274 270 267 264 261
311 310 309 309 308 308 309 310 311 311 311 309 308 306 304 302 301 300 298 295 289 283 278 277 282 289 294 295 291 286 284 285 285 285 285 286 286 288 287 287 287 287 286 286 286 285 285 285 285 285 285 286 286 286 286 287 288 288 286 285 285 286 288 288 288 288 288 289 291 292 293 292 292 291 289 288 287 285 283 280 276 273 269 267 264
311 311 312 312 312 311 311 311 311 310 310 309 309 308 307 306 305 300 294 286 279 277 279 283 288 293 294 292 288 287 287 286 286 286 286 287 288 289 289 289 289 288 288 288 287 287 287 287 287 287 287 287 287 288 288 289 289 288 287 286 287 287 287 286 286 286 286 288 291 291 291 291 291 291 291 290 288 287 285 282 279 276 273 269 266
315 315 315 315 313 312 312 312 312 312 312 312 312 310 308 306 302 295 287 281 280 282 285 288 291 293 292 290 289 289 288 288 288 288 289 290 290 291 291 291 290 290 290 289 289 289 289 289 289 288 288 288 288 289 290 290 290 290 288 287 287 287 286 285 285 285 286 288 289 289 289 290 291 292 291 288 286 284 283 280 277 276 272 269 267
318 318 317 316 315 315 315 315 316 317 316 313 309 304 298 295 293 289 285 284 286 287 289 291 294 294 293 292 292 291 291 291 291 291 292 292 292 293 293 293 293 293 292 291 291 291 291 290 290 289 289 289 290 291 292 291 292 291 289 287 287 286 286 286 286 286 287 288 287 287 289 291 293 292 289 285 282 278 275 273 272 272 270 268 267
320 319 318 318 318 318 318 319 319 320 319 316 311 305 300 295 292 289 288 289 290 291 293 297 299 298 296 296 296 295 295 294 294 294 294 294 295 296 295 295 295 294 293 293 293 292 292 292 291 291 291 291 292 293 293 293 293 293 291 289 288 287 286 286 287 287 287 286 286 289 293 294 293 290 287 285 282 276 272 272 272 271 268 266 265
321 320 320 321 322 322 323 324 324 323 322 320 317 314 311 306 300 296 296 296 297 299 303 305 304 303 303 302 301 300 299 298 298 297 297 297 298 298 298 297 296 295 295 294 294 294 293 292 292 292 293 293 294 294 295 295 296 296 294 291 289 289 288 288 288 288 286 286 289 294 296 294 291 289 286 284 280 279 280 278 274 271 269 270 271
323 325 326 327 328 329 329 328 327 326 324 322 320 319 318 316 314 311 309 308 309 310 311 310 310 310 309 307 305 303 302 301 300 300 300 301 301 301 300 299 298 297 296 296 295 294 293 292 293 294 295 296 296 296 296 297 298 298 296 293 291 290 290 290 289 287 286 289 294 297 295 293 291 289 286 282 279 281 282 276 271 269 271 274 274
329 331 332 333 333 334 333 331 330 329 328 327 328 328 327 326 323 320 318 316 316 316 316 317 317 316 312 309 307 305 304 303 302 302 303 303 303 302 301 300 299 298 297 297 296 295 293 294 295 296 297 298 298 298 298 300 300 300 296 293 290 289 289 289 287 286 289 293 297 297 294 293 292 289 287 284 280 276 271 266 264 264 265 265 264
334 335 336 337 337 337 336 335 335 335 335 335 335 335 333 330 327 324 322 322 322 323 322 322 319 316 313 310 308 307 307 306 306 305 305 305 305 304 302 302 301 300 298 297 296 296 295 296 297 298 299 299 299 299 300 301 301 299 295 291 288 287 287 286 285 288 292 295 296 295 294 292 290 288 286 281 274 267 265 265 265 266 267 267 268
337 339 341 342 341 340 339 340 340 341 341 341 340 339 337 335 333 331 330 329 329 327 325 323 320 317 314 312 312 312 311 310 309 309 309 308 307 306 305 304 303 301 300 299 298 297 298 299 300 300 300 299 299 299 301 301 300 298 294 290 287 286 285 285 287 291 294 295 295 294 292 288 286 286 285 279 271 267 269 272 273 273 275 276 277
340 343 345 345 343 342 342 343 345 346 346 346 345 344 344 343 341 339 337 335 332 329 327 325 322 319 318 316 316 315 313 313 312 310 310 310 308 307 306 306 304 302 301 300 300 300 301 301 302 301 300 299 300 301 301 301 299 297 294 291 288 286 285 286 289 292 292 292 292 290 287 286 286 287 285 281 277 275 275 275 276 277 279 281 281
345 347 348 348 346 345 345 346 348 349 350 350 350 349 350 349 347 344 341 338 335 333 331 328 325 323 321 319 318 317 315 314 313 312 312 311 310 309 308 307 306 304 302 302 302 303 304 304 302 301 301 301 301 302 302 301 299 297 295 292 289 287 286 287 288 288 287 287 287 285 284 285 285 284 281 278 276 274 273 272 273 275 277 279 280
349 350 350 349 349 349 349 350 351 352 352 353 353 353 352 351 348 346 343 340 338 336 334 331 328 326 323 321 320 319 317 316 315 315 314 313 312 310 309 309 307 305 303 303 304 305 305 304 303 302 303 303 303 304 304 302 300 298 297 296 293 290 287 285 282 282 283 283 282 283 285 285 282 279 278 276 273 271 270 270 271 273 275 276 277
351 352 351 351 351 352 353 353 354 354 354 354 354 354 353 351 349 346 344 342 340 338 336 333 330 328 326 324 323 322 321 320 319 318 316 315 313 311 310 310 309 306 305 305 306 307 306 305 304 304 305 305 306 306 305 303 302 301 300 298 295 291 287 284 284 286 286 285 287 290 293 290 286 283 283 281 277 274 274 275 276 276 277 276 276
352 353 352 351 352 354 355 355 355 354 353 353 353 353 352 350 349 347 345 343 341 339 337 334 332 331 329 328 327 326 324 323 322 321 319 317 315 313 312 311 309 307 307 306 306 307 306 304 304 305 305 306 307 307 306 304 304 304 304 303 301 299 296 296 299 299 296 295 298 300 299 296 293 290 288 285 281 278 277 278 279 278 277 276 274
352 352 352 353 354 355 355 355 354 354 353 352 352 352 351 350 349 347 345 343 342 342 340 337 335 333 332 331 330 328 326 325 324 321 320 318 316 314 313 311 309 307 307 307 307 308 308 306 306 308 308 308 309 309 308 307 307 309 310 310 307 303 302 303 303 300 298 299 302 301 299 298 297 294 292 290 286 281 278 277 277 277 277 275 274
352 352 353 354 355 355 355 355 354 353 353 352 352 351 351 350 348 347 346 344 343 343 341 339 337 335 333 332 331 329 327 326 323 321 319 317 315 314 312 311 310 310 309 309 309 309 310 309 309 310 311 311 312 311 310 309 309 310 310 307 302 300 300 301 299 298 298 300 300 298 298 298 297 295 294 292 289 284 280 277 276 275 274 273 271
Height
3095 3094 3093 3091 3090 3089 3087 3086 3085 3083 3082 3081 3080 3079 3078 3077 3076 3075 3074 3073 3072 3071 3070 3069 3068 3066 3065 3064 3062 3061 3059 3058 3056 3055 3055 3054 3053 3052 3050 3049 3048 3047 3047 3046 3045 3045 3044 3043 3042 3041 3040 3039 3038 3038 3037 3036 3035 3034 3035 3034 3034 3034 3034 3032 3030 3029 3030 3030 3031 3032 3032 3032 3033 3033 3033 3033 3033 3033 3033 3034 3034 3035 3035 3035 3036
3093 3091 3090 3088 3087 3086 3085 3083 3082 3081 3080 3079 3078 3077 3076 3075 3074 3073 3072 3070 3069 3068 3067 3065 3064 3063 3062 3060 3059 3057 3055 3054 3052 3051 3050 3049 3048 3047 3046 3045 3043 3042 3041 3040 3039 3039 3039 3037 3036 3035 3034 3034 3033 3032 3031 3030 3029 3028 3028 3028 3027 3027 3027 3025 3023 3023 3022 3022 3022 3023 3025 3026 3026 3025 3025 3026 3026 3026 3026 3027 3027 3028 3028 3029 3029
3090 3088 3087 3086 3084 3083 3081 3080 3079 3078 3077 3076 3075 3074 3073 3072 3071 3070 3069 3068 3066 3065 3064 3062 3061 3059 3058 3056 3055 3053 3051 3050 3048 3046 3045 3044 3043 3042 3040 3039 3038 3036 3035 3034 3033 3033 3032 3031 3030 3029 3028 3027 3027 3026 3024 3023 3023 3023 3022 3021 3020 3020 3019 3018 3017 3016 3015 3014 3014 3014 3015 3017 3018 3019 3019 3019 3020 3019 3019 3020 3020 3021 3021 3022 3022
3088 3086 3084 3083 3081 3080 3078 3077 3076 3074 3073 3072 3071 3070 3069 3068 3067 3066 3065 3064 3063 3061 3060 3058 3057 3055 3054 3052 3051 3049 3047 3045 3044 3042 3040 3039 3037 3036 3034 3033 3031 3030 3028 3028 3026 3026 3025 3024 3023 3022 3020 3020 3019 3018 3017 3016 3016 3016 3015 3014 3014 3013 3013 3012 3011 3009 3008 3007 3007 3006 3007 3007 3009 3011 3012 3014 3012 3012 3013 3013 3013 3013 3014 3014 3015
3087 3085 3083 3081 3080 3078 3076 3075 3073 3071 3070 3069 3068 3066 3065 3064 3063 3062 3061 3060 3058 3057 3056 3054 3053 3051 3050 3048 3047 3045 3043 3041 3039 3037 3035 3033 3031 3030 3028 3026 3024 3022 3021 3020 3019 3017 3017 3016 3014 3013 3012 3011 3011 3010 3009 3009 3008 3008 3007 3007 3006 3005 3005 3006 3005 3003 3001 3001 2999 2999 2999 2999 3000 3001 3003 3006 3006 3006 3006 3005 3005 3006 3006 3007 3008
3085 3083 3081 3080 3078 3076 3074 3072 3071 3069 3068 3066 3064 3063 3062 3061 3059 3058 3057 3055 3054 3052 3051 3050 3048 3047 3045 3043 3042 3040 3038 3035 3033 3031 3029 3027 3025 3023 3021 3018 3016 3014 3013 3012 3011 3009 3008 3008 3006 3004 3003 3002 3002 3001 3000 3000 3000 2999 2999 2999 2998 2997 2997 2998 2998 2996 2996 2994 2993 2992 2992 2991 2992 2993 2993 2995 2998 3000 2999 2998 2999 2999 2999 3000 3001
3083 3081 3079 3077 3075 3074 3072 3070 3068 3066 3065 3063 3061 3060 3058 3057 3055 3054 3052 3051 3049 3048 3046 3045 3043 3041 3040 3038 3036 3033 3031 3029 3026 3024 3022 3020 3018 3016 3014 3011 3009 3007 3005 3004 3003 3001 3001 3000 2997 2996 2995 2994 2993 2993 2992 2991 2991 2990 2990 2989 2989 2988 2988 2988 2989 2989 2989 2988 2987 2986 2985 2984 2984 2984 2984 2985 2987 2990 2993 2993 2993 2992 2992 2993 2993
3081 3079 3077 3075 3073 3071 3069 3067 3065 3063 3061 3059 3058 3056 3054 3053 3051 3049 3048 3046 3045 3043 3041 3040 3038 3036 3033 3031 3029 3027 3024 3022 3019 3017 3015 3013 3011 3009 3007 3004 3002 3000 2998 2996 2995 2994 2993 2992 2990 2988 2987 2986 2985 2984 2983 2983 2982 2981 2981 2981 2980 2980 2979 2979 2979 2979 2980 2980 2980 2979 2978 2978 2977 2976 2976 2975 2975 2978 2983 2985 2986 2986 2986 2986 2987
3078 3076 3074 3072 3070 3068 3066 3064 3062 3060 3057 3055 3054 3052 3050 3048 3046 3044 3043 3041 3039 3038 3036 3034 3032 3029 3027 3025 3022 3020 3017 3015 3012 3010 3008 3005 3003 3001 2999 2997 2995 2992 2991 2989 2988 2986 2985 2984 2983 2981 2980 2979 2978 2977 2976 2975 2975 2974 2973 2973 2972 2972 2971 2971 2971 2970 2970 2971 2971 2972 2972 2971 2970 2969 2968 2967 2966 2967 2970 2973 2975 2978 2979 2980 2980
3075 3073 3072 3070 3067 3065 3063 3061 3059 3056 3054 3052 3050 3047 3045 3043 3041 3039 3038 3036 3034 3032 3030 3028 3025 3023 3020 3018 3015 3013 3010 3008 3005 3003 3001 2998 2996 2994 2992 2990 2988 2985 2983 2982 2980 2979 2978 2977 2975 2974 2973 2972 2971 2970 2969 2968 2968 2967 2966 2966 2965 2965 2964 2964 2963 2963 2962 2962 2962 2963 2964 2964 2963 2963 2962 2961 2959 2959 2959 2961 2963 2966 2969 2972 2972
3073 3071 3069 3066 3064 3062 3060 3058 3055 3053 3050 3048 3046 3043 3041 3039 3037 3035 3033 3030 3028 3026 3024 3021 3018 3016 3013 3011 3008 3006 3003 3001 2998 2996 2994 2991 2989 2987 2985 2983 2981 2978 2977 2975 2973 2972 2971 2970 2968 2967 2966 2965 2964 2963 2963 2962 2961 2961 2960 2959 2959 2958 2958 2957 2957 2956 2956 2955 2955 2955 2955 2956 2956 2956 2956 2955 2953 2952 2951 2952 2953 2954 2957 2961 2963
3070 3068 3065 3063 3061 3058 3056 3054 3051 3049 3046 3044 3041 3039 3036 3034 3032 3029 3027 3025 3022 3020 3017 3015 3012 3009 3006 3004 3001 2999 2996 2993 2991 2989 2986 2984 2982 2980 2978 2976 2974 2972 2970 2968 2967 2965 2964 2963 2962 2961 2959 2958 2957 2957 2956 2955 2955 2954 2954 2953 2953 2952 2951 2951 2951 2951 2950 2949 2949 2948 2948 2948 2948 2948 2948 2948 2947 2946 2944 2944 2945 2945 2946 2951 2953
3067 3064 3062 3059 3057 3054 3052 3049 3047 3044 3042 3039 3037 3034 3031 3029 3027 3024 3022 3019 3016 3014 3011 3008 3005 3002 3000 2997 2995 2992 2989 2986 2984 2982 2979 2977 2975 2973 2971 2969 2967 2965 2963 2962 2960 2959 2958 2957 2955 2954 2953 2952 2951 2950 2950 2949 2948 2948 2947 2947 2946 2945 2945 2945 2944 2944 2944 2943 2942 2942 2941 2941 2941 2941 2940 2940 2940 2939 2938 2937 2937 2936 2937 2941 2943
3063 3060 3058 3055 3053 3050 3047 3045 3042 3039 3037 3034 3032 3029 3026 3024 3021 3019 3016 3014 3011 3008 3005 3002 2999 2996 2993 2991 2988 2986 2983 2980 2977 2975 2972 2970 2968 2966 2964 2963 2960 2958 2957 2955 2954 2953 2952 2950 2949 2948 2947 2946 2945 2944 2944 2943 2942 2941 2941 2940 2940 2939 2938 2938 2938 2937 2937 2936 2936 2935 2935 2934 2934 2934 2933 2933 2932 2932 2931 2930 2930 2929 2929 2931 2933
3059 3056 3054 3051 3048 3045 3043 3040 3037 3035 3032 3029 3027 3024 3021 3019 3016 3013 3010 3008 3004 3002 2999 2996 2992 2990 2987 2984 2981 2979 2976 2974 2971 2968 2966 2963 2961 2959 2958 2956 2954 2952 2951 2949 2948 2947 2946 2944 2943 2942 2941 2940 2939 2938 2938 2937 2936 2935 2935 2934 2933 2932 2932 2931 2931 2930 2930 2929 2929 2928 2928 2927 2927 2927 2926 2926 2926 2925 2924 2924 2922 2921 2921 2922 2924
3056 3052 3050 3047 3044 3041 3038 3035 3033 3030 3027 3024 3022 3019 3016 3013 3010 3007 3004 3002 2998 2996 2993 2990 2986 2983 2980 2977 2974 2972 2969 2967 2965 2962 2959 2957 2955 2953 2951 2950 2948 2946 2945 2943 2942 2941 2939 2938 2937 2936 2935 2934 2933 2932 2931 2931 2930 2929 2928 2928 2927 2926 2925 2925 2924 2924 2923 2922 2922 2921 2921 2920 2920 2919 2919 2919 2918 2918 2918 2917 2916 2915 2913 2913 2915
3052 3049 3046 3043 3039 3036 3033 3031 3028 3025 3022 3019 3017 3014 3010 3008 3005 3001 2999 2996 2993 2990 2987 2984 2981 2977 2974 2971 2968 2965 2963 2960 2958 2955 2953 2951 2948 2946 2945 2943 2942 2940 2939 2937 2936 2935 2934 2932 2932 2931 2929 2928 2927 2926 2925 2924 2924 2923 2922 2921 2920 2920 2919 2918 2918 2917 2916 2916 2915 2915 2914 2913 2913 2912 2912 2911 2911 2911 2911 2910 2910 2909 2907 2906 2906
3047 3044 3041 3038 3034 3031 3028 3025 3022 3019 3016 3013 3010 3007 3004 3001 2999 2996 2993 2990 2987 2984 2982 2978 2974 2970 2967 2964 2961 2958 2956 2953 2951 2949 2946 2944 2942 2940 2938 2937 2936 2934 2933 2932 2931 2929 2928 2927 2926 2925 2924 2923 2922 2920 2919 2918 2917 2917 2916 2915 2914 2913 2913 2912 2911 2911 2910 2909 2909 2908 2908 2907 2906 2905 2905 2905 2904 2904 2904 2903 2903 2902 2901 2900 2900
3042 3039 3036 3032 3029 3026 3022 3019 3015 3012 3009 3005 3003 2999 2996 2994 2991 2988 2985 2982 2980 2977 2974 2971 2967 2963 2960 2958 2955 2952 2949 2946 2944 2942 2940 2938 2936 2934 2932 2931 2929 2928 2927 2926 2925 2924 2922 2921 2920 2919 2918 2917 2916 2914 2913 2912 2911 2910 2909 2908 2908 2907 2906 2906 2905 2904 2903 2903 2902 2902 2901 2901 2900 2899 2899 2898 2898 2897 2897 2897 2896 2896 2895 2894 2894
3037 3033 3030 3027 3023 3020 3016 3012 3008 3005 3001 2998 2995 2991 2988 2985 2981 2978 2975 2972 2970 2968 2966 2963 2960 2956 2953 2951 2948 2945 2942 2939 2937 2935 2933 2931 2929 2928 2926 2925 2923 2922 2921 2920 2919 2918 2916 2915 2914 2913 2912 2911 2910 2908 2907 2906 2905 2904 2903 2902 2902 2901 2900 2899 2898 2898 2897 2896 2895 2895 2894 2894 2893 2893 2892 2891 2891 2890 2890 2890 2889 2889 2889 2888 2888
3031 3028 3024 3021 3017 3014 3010 3006 3002 2998 2994 2991 2988 2984 2981 2977 2973 2970 2966 2963 2961 2959 2957 2956 2953 2949 2946 2944 2941 2938 2935 2932 2930 2928 2926 2925 2923 2921 2920 2918 2917 2916 2915 2914 2913 2912 2911 2909 2908 2907 2906 2905 2904 2902 2901 2900 2899 2898 2897 2896 2895 2894 2894 2893 2892 2892 2891 2890 2889 2888 2888 2887 2886 2885 2885 2885 2884 2884 2883 2883 2882 2882 2882 2881 2880
3027 3023 3019 3015 3012 3008 3004 3000 2996 2992 2988 2984 2981 2977 2973 2970 2966 2963 2959 2956 2954 2952 2950 2948 2946 2943 2940 2936 2933 2931 2928 2926 2923 2921 2919 2918 2916 2915 2914 2912 2911 2910 2909 2908 2907 2906 2904 2903 2902 2901 2900 2899 2898 2896 2895 2894 2893 2892 2891 2890 2889 2888 2887 2887 2886 2885 2884 2883 2883 2882 2881 2880 2879 2879 2878 2877 2877 2877 2876 2875 2875 2874 2874 2874 2873
3022 3018 3014 3010 3006 3003 2999 2995 2991 2986 2982 2978 2974 2970 2966 2963 2960 2957 2953 2951 2948 2946 2944 2942 2940 2937 2933 2929 2926 2924 2921 2919 2916 2914 2912 2911 2910 2909 2907 2906 2905 2904 2903 2902 2901 2899 2898 2897 2896 2895 2894 2892 2891 2890 2889 2888 2887 2886 2885 2884 2883 2882 2881 2880 2879 2879 2878 2877 2876 2876 2875 2874 2873 2872 2872 2871 2870 2869 2868 2868 2868 2867 2867 2867 2866
3017 3012 3009 3005 3001 2997 2993 2989 2984 2980 2976 2972 2968 2965 2962 2958 2955 2952 2948 2945 2942 2939 2937 2935 2933 2930 2926 2922 2919 2916 2914 2911 2909 2907 2906 2904 2903 2902 2901 2900 2899 2898 2897 2896 2894 2893 2892 2891 2890 2889 2887 2886 2885 2884 2883 2882 2881 2879 2878 2878 2877 2876 2875 2874 2873 2872 2871 2870 2869 2869 2868 2867 2866 2865 2865 2864 2863 2862 2861 2860 2860 2860 2859 2859 2859
3011 3007 3003 3000 2995 2991 2986 2981 2977 2973 2970 2967 2963 2960 2957 2953 2950 2946 2943 2940 2936 2933 2930 2928 2926 2923 2919 2915 2912 2909 2907 2904 2901 2900 2898 2897 2896 2895 2894 2893 2893 2892 2891 2890 2888 2887 2886 2885 2883 2882 2881 2880 2879 2878 2877 2875 2874 2873 2872 2871 2870 2869 2868 2867 2866 2865 2864 2863 2862 2861 2861 2860 2859 2858 2858 2857 2856 2855 2854 2853 2853 2853 2852 2852 2851
3006 3002 2998 2994 2989 2985 2980 2976 2972 2968 2964 2961 2957 2954 2950 2946 2943 2940 2937 2933 2930 2927 2924 2921 2918 2915 2912 2909 2906 2903 2900 2897 2894 2892 2891 2891 2890 2889 2888 2887 2886 2885 2884 2883 2882 2881 2879 2878 2877 2876 2875 2874 2873 2872 2870 2869 2868 2867 2866 2865 2864 2863 2862 2861 2860 2858 2857 2856 2855 2854 2854 2853 2852 2851 2850 2849 2848 2847 2846 2846 2846 2845 2844 2844 2844
3002 2998 2993 2989 2984 2980 2976 2972 2968 2964 2960 2956 2951 2947 2943 2938 2935 2931 2928 2925 2922 2919 2917 2914 2912 2909 2905 2902 2899 2896 2892 2889 2887 2885 2884 2884 2883 2882 2881 2880 2879 2878 2877 2876 2875 2874 2873 2872 2871 2869 2868 2867 2866 2865 2864 2863 2862 2860 2859 2859 2857 2856 2855 2854 2853 2852 2851 2850 2849 2848 2847 2846 2845 2844 2843 2842 2841 2840 2839 2839 2838 2838 2837 2836 2836
2997 2993 2988 2983 2979 2975 2971 2967 2963 2958 2954 2948 2943 2938 2934 2929 2926 2923 2920 2917 2914 2912 2909 2907 2905 2902 2899 2895 2892 2888 2885 2882 2880 2879 2878 2877 2876 2875 2874 2874 2873 2872 2871 2870 2868 2867 2867 2865 2864 2863 2862 2861 2860 2859 2858 2856 2855 2854 2853 2852 2851 2850 2848 2847 2846 2845 2844 2843 2842 2841 2840 2839 2838 2837 2836 2834 2833 2833 2832 2832 2832 2831 2830 2829 2828
2991 2987 2983 2978 2973 2969 2965 2960 2955 2950 2945 2940 2935 2930 2925 2921 2917 2914 2912 2909 2907 2904 2902 2900 2898 2895 2892 2888 2885 2881 2878 2876 2873 2872 2871 2871 2870 2869 2868 2867 2866 2865 2864 2863 2862 2861 2860 2859 2858 2857 2856 2855 2854 2853 2852 2850 2849 2848 2847 2846 2845 2843 2842 2841 2840 2838 2838 2837 2836 2835 2834 2833 2831 2830 2829 2827 2826 2826 2825 2824 2825 2824 2823 2822 2821
2985 2980 2976 2971 2967 2962 2957 2952 2947 2942 2937 2932 2927 2922 2918 2914 2911 2907 2904 2902 2899 2897 2895 2893 2890 2887 2884 2881 2878 2875 2871 2869 2867 2865 2865 2864 2863 2862 2862 2861 2860 2859 2858 2857 2856 2855 2854 2853 2852 2851 2850 2849 2848 2847 2845 2844 2843 2842 2841 2840 2838 2837 2835 2834 2834 2833 2832 2832 2831 2830 2828 2827 2825 2824 2823 2821 2820 2819 2818 2817 2817 2817 2816 2816 2815
2978 2973 2968 2963 2958 2954 2949 2944 2939 2934 2929 2924 2919 2915 2911 2907 2904 2901 2898 2895 2893 2890 2888 2885 2882 2879 2876 2873 2871 2868 2864 2862 2860 2859 2858 2858 2857 2856 2855 2855 2854 2853 2852 2851 2850 2849 2848 2847 2846 2845 2844 2843 2842 2841 2840 2838 2837 2836 2835 2833 2831 2830 2829 2828 2827 2826 2826 2825 2824 2824 2823 2821 2820 2818 2817 2816 2814 2813 2812 2811 2810 2810 2810 2809 2809
2970 2965 2960 2956 2951 2946 2941 2936 2930 2925 2920 2915 2911 2907 2904 2901 2898 2895 2892 2889 2886 2884 2881 2878 2875 2872 2868 2865 2863 2860 2857 2855 2854 2853 2852 2851 2851 2850 2850 2849 2848 2846 2845 2844 2844 2843 2842 2841 2840 2839 2838 2837 2837 2836 2834 2833 2832 2831 2830 2827 2824 2823 2822 2821 2820 2819 2818 2817 2816 2816 2816 2814 2813 2812 2810 2809 2808 2807 2807 2806 2805 2804 2804 2804 2804
2964 2959 2954 2949 2944 2938 2933 2927 2922 2917 2912 2908 2905 2901 2898 2895 2892 2888 2885 2883 2880 2877 2874 2870 2867 2863 2860 2858 2856 2853 2850 2849 2848 2847 2846 2846 2845 2845 2844 2843 2842 2841 2840 2839 2838 2837 2836 2835 2834 2833 2832 2832 2831 2830 2829 2828 2827 2826 2825 2822 2819 2817 2815 2815 2814 2813 2811 2810 2809 2808 2808 2807 2806 2805 2803 2802 2801 2801 2800 2800 2800 2799 2798 2799 2799
2958 2952 2947 2942 2936 2931 2925 2919 2914 2910 2905 2901 2897 2895 2892 2888 2885 2882 2879 2876 2873 2870 2866 2862 2859 2855 2853 2850 2848 2846 2844 2843 2842 2841 2841 2840 2840 2839 2838 2837 2836 2835 2834 2833 2832 2831 2830 2829 2828 2827 2826 2826 2825 2824 2823 2822 2821 2820 2819 2816 2813 2812 2810 2809 2808 2807 2805 2804 2802 2801 2800 2799 2798 2798 2797 2796 2795 2794 2794 2793 2793 2793 2792 2792 2792
2951 2946 2940 2935 2928 2922 2916 2910 2906 2901 2897 2893 2889 2886 2883 2880 2877 2875 2872 2870 2866 2862 2858 2855 2852 2849 2846 2843 2841 2840 2839 2838 2837 2836 2835 2835 2834 2833 2832 2831 2830 2829 2828 2827 2826 2825 2824 2823 2822 2822 2821 2820 2820 2818 2817 2817 2816 2814 2813 2810 2808 2807 2805 2804 2803 2801 2800 2798 2797 2796 2794 2792 2791 2791 2790 2790 2789 2788 2787 2787 2786 2785 2785 2785 2785
2945 2939 2933 2926 2919 2913 2907 2902 2898 2893 2888 2884 2880 2877 2874 2872 2870 2868 2866 2863 2859 2855 2851 2848 2845 2842 2839 2837 2835 2834 2833 2832 2832 2831 2830 2829 2829 2828 2827 2826 2824 2823 2823 2822 2821 2819 2818 2818 2817 2816 2815 2814 2814 2812 2811 2810 2810 2808 2806 2804 2802 2801 2799 2798 2797 2796 2794 2793 2792 2790 2788 2787 2786 2785 2785 2785 2784 2783 2781 2780 2779 2778 2778 2778 2777
2939 2932 2925 2918 2912 2906 2901 2895 2890 2885 2880 2876 2872 2870 2868 2867 2865 2862 2859 2855 2851 2848 2845 2841 2838 2836 2833 2832 2831 2830 2829 2828 2827 2826 2825 2824 2823 2822 2822 2820 2819 2818 2817 2816 2815 2814 2813 2812 2811 2810 2809 2809 2808 2807 2805 2804 2804 2802 2800 2798 2796 2795 2793 2792 2791 2790 2789 2788 2787 2785 2783 2782 2781 2781 2780 2780 2779 2778 2776 2775 2774 2772 2772 2771 2770
2931 2923 2917 2912 2905 2899 2894 2888 2882 2877 2872 2869 2866 2864 2862 2860 2857 2854 2851 2847 2844 2841 2837 2835 2832 2831 2829 2827 2826 2825 2824 2823 2822 2821 2820 2819 2818 2817 2816 2815 2814 2813 2812 2811 2810 2809 2808 2807 2806 2805 2804 2803 2802 2801 2800 2799 2798 2797 2795 2792 2790 2788 2787 2786 2785 2784 2783 2782 2781 2780 2779 2777 2776 2776 2775 2774 2774 2773 2771 2770 2768 2767 2766 2765 2764
2924 2917 2910 2904 2898 2892 2886 2881 2875 2870 2865 2862 2859 2856 2854 2851 2849 2845 2842 2839 2836 2833 2830 2829 2827 2826 2824 2823 2822 2821 2820 2819 2818 2817 2815 2814 2813 2812 2811 2810 2809 2808 2807 2806 2805 2804 2803 2802 2801 2800 2798 2797 2797 2796 2794 2793 2792 2791 2789 2786 2784 2782 2780 2779 2779 2778 2777 2776 2774 2774 2774 2773 2771 2770 2769 2768 2768 2768 2766 2765 2763 2762 2759 2758 2758
2917 2911 2904 2897 2891 2884 2878 2873 2868 2863 2859 2855 2852 2849 2846 2843 2840 2838 2835 2832 2829 2827 2826 2824 2823 2822 2821 2819 2818 2817 2816 2814 2813 2812 2811 2810 2809 2808 2806 2805 2804 2803 2802 2801 2800 2799 2798 2797 2796 2794 2793 2792 2791 2790 2789 2787 2786 2786 2783 2780 2778 2776 2774 2773 2773 2771 2770 2769 2769 2769 2768 2767 2766 2764 2764 2763 2763 2762 2762 2760 2757 2754 2752 2752 2753
2910 2903 2896 2889 2883 2877 2872 2867 2862 2857 2853 2849 2846 2843 2840 2837 2834 2832 2829 2827 2825 2824 2822 2821 2820 2818 2817 2816 2814 2813 2812 2810 2809 2808 2806 2805 2804 2803 2802 2801 2800 2799 2797 2796 2796 2794 2793 2792 2791 2790 2788 2787 2786 2784 2783 2782 2781 2780 2778 2775 2772 2770 2769 2767 2766 2765 2763 2763 2764 2763 2762 2761 2760 2759 2758 2757 2757 2758 2757 2754 2750 2749 2748 2749 2747
2903 2896 2889 2883 2877 2872 2867 2862 2857 2853 2848 2845 2842 2838 2836 2833 2831 2828 2826 2824 2822 2821 2820 2818 2817 2815 2814 2812 2811 2809 2808 2807 2805 2804 2802 2801 2800 2799 2798 2797 2796 2794 2793 2792 2791 2790 2788 2787 2786 2785 2784 2782 2781 2779 2778 2777 2776 2774 2773 2770 2768 2765 2764 2762 2760 2758 2758 2758 2758 2757 2755 2755 2753 2752 2752 2752 2752 2752 2749 2746 2744 2744 2743 2742 2739
2896 2890 2884 2878 2873 2868 2863 2858 2853 2849 2845 2842 2838 2835 2833 2830 2828 2826 2824 2822 2820 2819 2817 2816 2814 2812 2811 2809 2808 2806 2805 2803 2802 2800 2799 2798 2796 2795 2794 2793 2792 2790 2789 2788 2786 2785 2784 2783 2782 2781 2779 2778 2776 2774 2773 2772 2771 2769 2767 2765 2763 2761 2760 2757 2754 2753 2753 2753 2752 2751 2750 2749 2747 2746 2746 2746 2745 2743 2740 2738 2738 2737 2735 2734 2732
2891 2885 2880 2874 2869 2864 2860 2855 2851 2846 2842 2839 2836 2833 2831 2828 2826 2824 2822 2820 2818 2817 2815 2813 2812 2810 2808 2806 2805 2803 2802 2800 2798 2796 2795 2794 2792 2791 2790 2789 2788 2786 2784 2783 2782 2781 2779 2778 2777 2776 2775 2773 2771 2770 2769 2767 2766 2764 2762 2760 2758 2757 2755 2752 2750 2749 2748 2747 2746 2746 2744 2743 2742 2741 2740 2739 2737 2735 2733 2732 2732 2730 2728 2728 2727
2888 2882 2876 2871 2866 2862 2857 2853 2849 2844 2841 2837 2834 2831 2829 2827 2825 2822 2820 2818 2817 2815 2813 2811 2809 2807 2805 2804 2802 2800 2798 2797 2795 2793 2792 2790 2789 2788 2787 2785 2784 2782 2780 2779 2778 2776 2775 2774 2772 2771 2770 2769 2767 2766 2764 2763 2761 2759 2757 2755 2753 2752 2750 2748 2746 2745 2744 2742 2741 2740 2739 2737 2736 2735 2733 2731 2730 2729 2728 2727 2725 2723 2722 2722 2721
2884 2878 2873 2869 2865 2860 2856 2851 2847 2843 2839 2836 2833 2830 2827 2825 2823 2821 2819 2817 2815 2813 2811 2809 2807 2805 2803 2801 2799 2797 2796 2794 2792 2790 2789 2787 2786 2784 2783 2782 2780 2778 2776 2775 2773 2772 2771 2769 2768 2766 2765 2764 2762 2761 2759 2758 2755 2753 2752 2750 2748 2746 2745 2744 2742 2741 2740 2738 2737 2735 2734 2733 2732 2730 2728 2726 2724 2724 2723 2722 2720 2718 2717 2716 2715
2880 2875 2871 2867 2863 2858 2854 2849 2846 2842 2838 2835 2832 2829 2827 2824 2822 2819 2817 2815 2813 2811 2809 2807 2804 2802 2800 2798 2796 2795 2793 2791 2789 2788 2786 2784 2783 2781 2780 2778 2777 2775 2772 2771 2769 2768 2766 2764 2763 2761 2760 2759 2758 2756 2754 2752 2750 2748 2746 2745 2743 2741 2740 2739 2738 2737 2735 2733 2732 2731 2730 2728 2727 2725 2723 2721 2720 2718 2717 2716 2715 2713 2712 2711 2710
2878 2873 2869 2865 2861 2856 2852 2848 2844 2841 2838 2834 2831 2829 2826 2823 2821 2818 2816 2814 2811 2809 2807 2805 2802 2800 2798 2796 2794 2792 2790 2789 2787 2785 2783 2782 2780 2778 2777 2775 2773 2771 2769 2767 2765 2764 2762 2760 2757 2756 2754 2753 2752 2751 2749 2747 2744 2743 2741 2739 2738 2736 2734 2733 2732 2730 2729 2727 2726 2725 2724 2723 2721 2719 2718 2716 2715 2713 2712 2710 2709 2708 2707 2706 2705
2876 2871 2867 2863 2859 2855 2851 2847 2843 2840 2837 2834 2831 2828 2825 2823 2820 2817 2815 2812 2810 2808 2805 2803 2800 2798 2796 2794 2792 2790 2788 2786 2784 2782 2781 2779 2777 2775 2773 2772 2770 2767 2765 2763 2761 2760 2758 2755 2753 2751 2750 2748 2747 2747 2744 2742 2739 2737 2735 2733 2731 2729 2727 2726 2725 2723 2721 2720 2720 2719 2718 2716 2715 2714 2713 2711 2710 2708 2707 2705 2704 2703 2702 2701 2700
2874 2870 2866 2861 2857 2853 2850 2846 2843 2840 2836 2833 2830 2827 2824 2822 2819 2816 2814 2811 2808 2806 2804 2801 2799 2796 2794 2792 2790 2788 2785 2783 2781 2779 2778 2776 2774 2772 2769 2768 2766 2765 2762 2759 2757 2755 2753 2750 2747 2746 2744 2742 2741 2740 2739 2737 2735 2732 2730 2728 2726 2724 2723 2721 2720 2718 2716 2715 2715 2714 2712 2711 2709 2708 2707 2706 2704 2703 2702 2701 2700 2698 2697 2696 2695
2872 2868 2864 2860 2856 2852 2848 2845 2842 2839 2836 2832 2829 2826 2823 2821 2818 2815 2812 2809 2807 2804 2802 2799 2797 2794 2792 2789 2787 2785 2783 2781 2778 2776 2774 2773 2771 2770 2767 2764 2761 2759 2758 2755 2752 2750 2748 2745 2742 2739 2738 2736 2735 2734 2732 2731 2729 2728 2726 2724 2722 2720 2719 2717 2715 2713 2711 2711 2710 2708 2707 2706 2704 2703 2702 2701 2699 2698 2697 2696 2695 2694 2693 2692 2691